This is the latest recevied weather packets stored in our database for station/object KB0BS-13. If no packets are shown the sender has not sent any weather packets the latest 10 day(s).
| Time | Temp. | Humidity | Pressure | Rain* | Wind** | Luminosity | Snow |
|---|---|---|---|---|---|---|---|
| 1777134503 | 5.56° C | 98% | 1019 hPa | 0 mm | - | 133 W/m² | - |
| 1777134199 | 5.56° C | 98% | 1018.9 hPa | 0 mm | - | 142 W/m² | - |
| 1777133896 | 5.56° C | 99% | 1018.7 hPa | 0 mm | - | 151 W/m² | - |
| 1777133592 | 5.56° C | 99% | 1018.9 hPa | 0 mm | - | 131 W/m² | - |
| 1777133292 | 5.56° C | 99% | 1019.2 hPa | 0 mm | - | 119 W/m² | - |
| 1777132991 | 5.56° C | 99% | 1018.8 hPa | 0 mm | - | 124 W/m² | - |
| 1777132688 | 5.56° C | 99% | 1018.7 hPa | 0 mm | - | 121 W/m² | - |
| 1777132384 | 5.56° C | 99% | 1018.8 hPa | 0 mm | - | 107 W/m² | - |
| 1777132081 | 5.56° C | 98% | 1018.7 hPa | 0 mm | - | 90 W/m² | - |
| 1777131776 | 5.56° C | 98% | 1018.8 hPa | 0 mm | - | 83 W/m² | - |
| 1777131474 | 5.56° C | 98% | 1019 hPa | 0 mm | - | 77 W/m² | - |
| 1777131172 | 5.56° C | 97% | 1018.9 hPa | 0 mm | - | 79 W/m² | - |
| 1777130869 | 5.56° C | 98% | 1018.7 hPa | 0 mm | - | 93 W/m² | - |
| 1777130565 | 5.56° C | 98% | 1018.3 hPa | 0 mm | - | 113 W/m² | - |
| 1777130262 | 5° C | 98% | 1018 hPa | 0 mm | - | 123 W/m² | - |
| 1777129958 | 5° C | 98% | 1018.2 hPa | 0 mm | - | 119 W/m² | - |
| 1777129657 | 5.56° C | 99% | 1018 hPa | 0 mm | - | 102 W/m² | - |
| 1777129352 | 5.56° C | 99% | 1017.6 hPa | 0 mm | - | 113 W/m² | - |
| 1777129047 | 5° C | 99% | 1017.6 hPa | 0 mm | - | 105 W/m² | - |
| 1777128743 | 5° C | 99% | 1017.8 hPa | 0 mm | - | 95 W/m² | - |
| 1777128441 | 5° C | 98% | 1017.7 hPa | 0 mm | - | 86 W/m² | - |
| 1777128138 | 5° C | 98% | 1017.6 hPa | 0 mm | - | 97 W/m² | - |
| 1777127836 | 5° C | 98% | 1017.4 hPa | 0 mm | - | 106 W/m² | - |
| 1777127533 | 5° C | 98% | 1017.4 hPa | 0 mm | - | 106 W/m² | - |
| 1777127228 | 5° C | 98% | 1017.2 hPa | 0 mm | - | 123 W/m² | - |
* Rain latest hour (hover to see other rain measurements)
** Current wind speed in m/s (hover to see current wind gust speed)